CAPE
0 1 0 0 0 0 1 0 1 3 22 12 18 23 21 22 2 7 19 4 2 4 0 0 0 0 0 0 0 0 0 6 2 0 0 0 0 0 0 0 0 0 0
0 0 5 5 1 0 0 0 0 0 0 2 12 22 20 1 0 0 0 0 0 0 0 0 0 0 0 0 0 0 0 0 1 1 0 0 0 0 0 0 0 0 0
0 0 5 6 0 0 0 0 0 0 0 1 2 5 0 0 0 0 0 0 0 0 0 0 0 0 0 0 0 0 0 0 0 1 0 0 0 0 0 0 0 0 0
0 0 0 0 0 0 0 0 0 2 13 1 0 0 0 0 0 0 0 0 0 0 0 0 0 0 0 0 0 0 0 0 0 0 0 0 0 0 0 0 0 0 0
0 0 0 0 0 2 6 2 1 1 0 0 0 0 0 0 0 0 0 0 0 0 0 3 5 10 4 0 3 2 0 0 0 0 0 0 1 1 1 0 0 0 0
0 3 1 1 1 0 1 0 0 0 0 0 0 0 0 0 0 0 0 0 0 0 0 0 0 0 0 0 9 5 2 0 0 0 1 1 1 0 0 0 0 0 0
1 1 0 0 0 2 0 1 2 0 1 1 1 1 2 0 0 0 0 0 0 0 0 0 0 0 0 1 0 0 1 1 0 0 0 0 0 0 0 0 0 0 0
0 0 0 0 0 0 1 0 0 0 0 0 1 0 0 0 0 2 1 0 0 0 1 1 0 0 0 0 1 0 0 0 0 0 0 0 0 0 0 0 0 0 0
0 0 1 1 0 0 0 0 0 0 0 0 1 0 0 1 0 0 0 0 0 1 1 1 0 0 0 0 0 0 0 0 0 0 0 0 0 0 0 0 0 0 0
2 2 2 0 0 0 0 0 0 1 1 1 1 1 1 1 0 0 0 0 0 0 0 0 0 0 0 0 0 0 0 0 0 0 0 0 0 0 0 0 0 0 0
4 5 0 0 0 0 0 0 0 0 0 0 0 1 1 0 0 0 0 0 0 0 0 0 0 0 0 0 0 0 0 0 0 0 0 0 0 0 0 0 0 0 0
2 0 0 0 0 0 0 0 0 0 0 0 0 0 1 0 0 0 0 0 0 0 0 0 0 0 0 0 0 0 0 0 0 0 0 0 0 0 0 0 0 0 0
0 0 0 0 0 0 0 0 0 0 0 0 1 1 0 0 0 0 0 0 0 0 0 0 0 0 0 0 0 0 0 0 0 0 0 0 0 0 0 0 0 0 0
0 0 0 0 0 0 0 0 0 0 0 0 0 0 0 0 0 0 0 0 0 0 0 0 0 0 0 0 0 0 0 0 0 0 0 0 0 0 0 0 0 0 0
0 0 0 0 0 0 0 0 0 0 0 0 0 0 0 0 0 0 0 0 0 0 0 0 0 0 0 0 0 0 0 0 0 0 0 0 0 0 0 0 0 0 0
0 0 0 0 0 0 0 0 0 0 0 0 0 0 0 0 0 0 0 0 0 0 0 0 0 0 1 8 3 17 2 4 0 0 0 0 1 2 6 1 4 1 0
0 0 0 0 0 0 0 0 0 0 0 0 0 0 0 0 0 0 0 0 0 0 0 0 0 0 5 6 25 1 0 0 0 1 7 3 2 17 28 9 1 8 23
0 0 0 0 0 0 0 0 1 7 7 6 0 0 1 0 0 0 0 0 0 0 0 0 0 0 0 0 0 0 0 0 0 0 0 0 0 20 11 0 0 0 0
0 0 1 0 0 0 2 3 9 13 10 9 2 0 0 0 0 0 0 0 0 0 0 0 0 0 0 0 0 0 0 0 0 0 0 0 0 0 0 0 0 0 0
0 1 2 2 23 26 21 12 15 9 14 5 0 0 0 0 0 0 0 0 0 0 0 0 0 0 0 0 0 0 0 0 0 0 0 0 0 0 0 0 0 0 0
0 4 6 20 10 12 14 16 17 6 0 0 0 0 0 0 0 0 0 0 0 0 0 0 0 0 0 0 0 0 0 0 0 0 0 0 0 0 0 0 0 0 0
2 1 0 3 7 16 2 0 0 0 0 0 0 0 0 0 0 0 0 0 0 0 0 0 0 0 0 0 0 0 0 0 0 0 0 0 0 0 0 0 0 0 0
5 2 5 2 1 0 0 0 0 0 0 0 0 0 0 0 0 0 0 0 0 0 0 0 0 0 0 0 0 0 0 0 0 0 0 0 0 0 0 0 0 0 0
0 0 0 0 0 0 0 0 0 0 0 0 0 0 0 0 0 0 0 0 0 0 0 0 0 0 0 0 0 0 0 0 0 0 0 0 0 0 0 0 0 0 0
1 0 0 0 0 0 0 0 0 0 0 0 0 0 0 0 0 0 0 0 0 0 0 0 0 0 0 0 0 0 0 0 0 0 0 0 0 0 0 0 0 0 0
0 0 0 0 0 0 0 0 0 0 0 0 0 0 0 0 0 0 0 0 0 0 0 0 0 0 0 0 0 0 0 0 0 0 0 0 0 0 0 0 0 0 0
CIN
0 -12 0 0 0 0 -37 -1 -25 -27 -24 -21 -21 -15 -17 -25 -25 -8 -12 -22 -21 -22 -2 0 0 0 0 0 0 0 0 -6 -2 0 -1 0 0 0 0 0 0 0 0
0 -13 -31 -47 -33 0 0 0 -2 -1 -3 -34 -30 -22 -18 -28 0 -1 0 0 -19 -1 0 0 0 0 0 0 0 0 0 -15 -4 0 0 0 0 0 0 0 0 0 0
0 0 -48 -33 0 0 0 0 0 0 -6 -35 -36 -25 0 0 0 0 0 0 0 0 0 0 0 0 0 0 0 0 0 0 0 0 0 0 0 0 0 0 0 0 0
0 0 0 0 0 0 0 0 0 -12 -12 -30 0 0 0 0 0 0 0 0 0 0 0 0 0 0 0 0 0 0 0 0 0 0 0 0 0 0 0 0 0 0 0
0 0 0 0 0 -40 -40 -42 -37 -32 0 0 0 0 0 0 0 0 0 0 0 0 0 -28 -17 -5 -7 -2 -8 -9 0 0 0 0 0 0 0 0 0 0 0 0 0
-3 -33 -45 -40 -33 -1 -15 0 -9 0 0 0 0 0 0 0 0 0 0 0 0 0 0 -46 0 0 0 0 -10 -9 -3 0 0 0 0 0 0 0 0 0 0 0 0
-27 -18 0 0 -3 -15 -8 -2 -5 -1 -5 -2 -6 -8 -12 0 0 -14 0 0 -2 0 0 0 0 0 0 -15 0 0 0 0 -7 0 0 0 0 0 0 0 0 0 0
-9 0 0 0 0 0 -4 0 0 0 -6 -6 -9 -9 -6 0 0 -39 -36 0 0 0 0 0 0 0 0 0 0 0 0 0 0 0 0 0 0 0 0 0 0 0 0
0 0 -17 -26 0 0 0 0 0 0 0 0 0 0 0 0 0 0 0 0 0 0 0 0 0 0 0 0 0 0 0 0 0 0 0 0 0 0 0 0 0 0 0
-9 -17 -24 -4 0 0 0 0 0 0 0 0 0 0 0 0 0 0 0 0 0 0 0 0 0 0 0 0 0 0 0 0 0 0 0 0 0 0 0 0 0 0 0
-11 -16 0 0 0 0 0 0 0 0 0 0 0 0 0 0 0 0 0 0 0 0 0 0 0 0 0 0 0 0 0 0 0 0 0 0 0 0 0 0 0 0 0
-23 0 0 0 0 0 0 0 0 0 0 0 0 0 0 0 0 0 0 0 0 0 0 0 0 0 0 0 0 0 0 0 0 0 0 0 0 0 0 0 0 0 0
0 0 0 0 0 0 0 0 0 0 0 0 0 0 0 0 0 0 0 0 0 0 0 0 0 0 0 0 0 0 0 0 0 0 0 0 0 0 0 0 0 0 0
-27 0 -4 0 0 0 0 0 0 0 0 0 0 0 0 0 0 0 0 0 0 0 0 0 0 0 0 0 0 0 0 0 0 0 0 0 0 0 0 -142 0 0 0
0 0 0 0 0 0 0 0 0 0 0 0 0 0 0 0 0 0 0 0 0 0 0 0 0 0 0 0 0 0 0 0 0 0 0 0 0 0 0 -34 0 0 -10
0 0 0 0 0 0 0 0 0 0 0 0 0 0 0 0 0 0 0 0 0 0 0 0 0 -40 -57 -93 -78 -56 -58 -62 0 0 0 0 -31 -35 -36 -35 -45 -52 0
0 0 0 0 0 0 0 0 0 0 0 0 0 0 0 0 0 0 0 0 0 0 -2 0 0 -2 -74 -37 -45 -18 0 0 -2 -63 -48 -34 -28 -18 -31 -29 -42 -43 -38
0 0 0 0 0 0 0 0 -21 -82 -52 -55 0 -13 -17 0 0 0 0 0 0 0 0 0 0 0 0 0 0 0 0 0 0 0 0 0 0 -27 -31 -17 0 0 0
0 0 -25 -35 0 0 -78 -61 -72 -57 -48 -47 -46 0 0 0 0 0 0 0 0 0 0 0 0 0 0 0 0 0 0 0 0 0 0 0 0 0 0 0 0 0 0
0 -71 -92 -53 -61 -56 -52 -45 -46 -44 -37 -43 0 0 0 0 0 0 0 0 0 0 0 0 0 0 0 0 0 0 0 0 0 0 0 0 0 0 0 0 0 0 0
-103 -100 -112 -79 -44 -34 -31 -30 -37 -32 0 0 0 0 0 0 0 0 0 0 0 0 0 0 0 0 0 0 0 0 0 0 0 0 0 0 0 0 0 0 0 0 0
-146 -83 0 -58 -38 -36 -34 0 0 0 0 0 0 0 0 0 0 0 0 0 0 0 0 0 0 0 0 0 0 0 0 0 0 0 0 0 0 0 0 0 0 0 0
-123 -60 -72 -64 -41 0 0 0 0 0 0 0 0 0 0 0 0 0 0 0 0 0 0 0 0 0 0 0 0 0 0 0 0 0 0 0 0 0 0 0 0 0 0
0 -12 0 0 0 0 0 0 0 0 0 0 0 0 0 0 0 0 0 0 0 0 0 0 0 0 0 0 0 0 0 0 0 0 0 0 0 0 0 0 0 0 0
-10 0 0 0 0 0 0 0 0 0 0 0 0 0 0 0 0 0 0 0 0 0 0 0 0 0 0 0 0 0 0 0 0 0 0 0 0 0 0 0 0 0 0
0 0 0 0 0 0 0 0 0 0 0 0 0 0 0 0 0 0 0 0 0 0 0 0 0 0 0 0 0 0 0 0 0 0 0 0 0 0 0 0 0 0 0
Wind_Speed
32 28 29 30 30 28 26 25 23 21 23 24 25 21 19 20 20 18 19 15 16 18 20 21 22 20 21 21 24 24 24 22 24 23 21 22 25 25 25 26 25 24 24
32 30 30 31 31 28 26 25 23 23 24 24 24 22 19 19 19 16 16 18 19 21 22 22 22 19 21 21 24 25 22 21 21 23 20 23 23 23 24 26 25 23 23
33 33 31 29 29 30 28 25 24 24 23 23 22 20 20 20 19 18 19 20 21 22 23 22 21 19 22 22 23 21 20 19 18 18 20 20 21 22 23 25 25 23 22
32 32 30 28 29 29 28 27 26 24 22 22 21 20 20 21 22 23 23 23 23 23 24 23 20 20 21 20 18 17 16 15 15 18 19 21 22 20 21 24 23 21 19
30 28 28 28 28 28 27 27 25 24 22 21 22 23 23 25 26 26 25 26 25 24 22 18 17 18 17 16 15 14 13 13 13 18 21 22 21 20 16 17 20 20 18
26 27 28 29 29 29 26 24 23 23 23 22 23 23 22 21 22 21 20 19 17 15 14 14 14 12 12 12 11 11 12 12 16 20 19 19 16 18 15 19 20 17 17
25 27 28 27 26 26 24 21 20 18 16 20 21 19 13 13 13 11 10 13 13 11 11 12 12 10 11 11 11 10 9 20 19 16 16 14 14 15 19 23 23 20 17
25 25 26 24 22 22 21 20 14 12 11 11 7 6 7 5 5 6 8 10 12 10 10 11 12 11 11 13 18 15 3 19 13 15 17 17 19 19 22 23 21 15 10
22 22 21 19 20 22 22 19 17 15 12 10 11 9 10 9 8 11 12 12 12 12 12 11 14 14 15 22 24 23 20 15 13 14 16 15 18 20 20 20 18 15 15
21 19 19 21 22 21 18 20 19 20 19 19 18 16 15 14 13 14 16 17 14 13 12 14 14 18 18 20 21 20 18 14 14 15 17 19 20 19 17 17 16 15 16
17 19 19 19 19 19 20 21 22 23 22 21 21 19 18 16 16 17 17 16 15 17 16 14 14 16 20 20 19 18 16 17 17 18 19 18 17 18 17 17 16 16 16
16 18 19 18 19 19 22 22 22 21 20 19 18 17 15 15 15 16 15 14 14 14 13 15 18 17 16 16 18 20 18 20 21 21 21 19 18 17 17 16 16 16 15
15 17 18 19 19 17 19 19 20 17 17 17 17 18 17 17 17 17 15 14 15 17 19 23 23 22 21 24 25 23 23 23 19 17 17 17 15 13 13 15 15 14 13
12 13 14 15 15 16 18 19 18 17 17 18 19 20 21 23 18 17 17 18 18 20 23 22 19 20 21 21 20 19 17 15 13 12 12 10 10 10 11 13 13 12 13
9 11 11 14 14 17 19 19 20 22 24 25 24 24 23 21 17 17 17 16 16 16 18 18 17 17 17 17 16 14 12 12 12 12 12 11 11 13 12 14 15 13 13
8 12 13 14 16 19 22 23 23 23 23 23 23 22 21 19 15 14 12 10 11 14 16 15 14 13 14 13 12 12 13 13 14 14 15 15 15 15 15 14 14 16 16
15 19 19 18 19 21 23 24 26 24 23 21 20 18 16 13 11 9 8 10 12 17 15 15 14 13 14 15 14 15 16 15 14 14 11 10 12 14 15 18 15 14 14
22 19 19 18 18 19 19 20 20 20 20 16 16 14 11 11 11 11 13 15 14 13 13 14 15 13 14 14 14 14 14 15 16 14 14 14 13 13 17 16 17 18 16
19 18 16 14 13 15 20 20 18 17 16 15 12 14 14 13 12 10 12 16 16 14 13 13 13 13 14 14 13 12 14 15 16 16 17 17 20 23 23 24 25 27 25
17 14 11 10 9 11 14 18 17 16 13 13 15 15 15 14 12 12 12 12 12 12 12 13 13 12 12 11 11 12 12 13 14 16 17 22 23 24 22 22 26 28 28
12 10 7 7 10 11 13 14 14 14 16 17 17 18 19 19 17 16 15 15 15 16 16 16 15 14 14 13 12 12 13 15 17 18 21 24 26 30 25 26 27 28 29
12 10 9 8 8 9 10 13 19 18 17 18 17 16 16 18 18 17 15 14 14 15 16 16 15 15 15 15 14 13 14 16 18 19 20 23 27 28 29 31 30 29 31
12 9 8 7 10 13 16 15 15 16 15 14 13 12 14 17 18 17 17 16 16 16 15 17 17 16 15 15 16 17 18 18 18 19 21 23 26 28 29 31 30 30 30
12 9 7 10 11 12 12 13 14 13 12 11 10 8 8 13 15 19 20 18 17 14 13 17 18 16 16 16 15 17 18 18 20 22 24 27 29 30 31 30 29 30 31
14 11 8 10 13 12 11 10 9 7 8 8 7 7 6 7 13 18 20 21 21 20 16 16 16 16 16 15 14 14 16 20 24 26 28 28 30 31 32 32 30 30 32
16 13 11 11 12 12 13 12 9 6 3 3 3 3 3 3 4 18 23 24 27 26 24 22 21 23 24 24 22 20 23 26 28 28 29 31 32 32 32 32 32 31 33
Wind_Direction
358 1 0 358 357 356 360 1 5 12 358 358 350 353 359 2 349 335 308 339 344 334 329 325 325 331 332 338 342 346 339 331 323 331 352 344 344 348 344 350 7 5 346
359 359 1 360 359 360 360 359 4 3 358 359 0 360 351 344 356 346 344 342 343 339 333 331 330 336 330 341 340 321 316 316 328 307 331 351 2 1 357 1 12 18 27
357 359 1 5 8 7 6 4 1 0 356 356 354 0 360 346 336 319 333 334 336 338 328 337 339 339 332 334 315 301 296 297 294 308 340 24 28 19 20 20 18 28 36
2 4 10 13 12 10 7 4 0 2 8 2 1 359 352 340 321 312 314 318 323 316 313 319 329 297 286 280 279 282 278 271 271 9 48 38 29 36 33 26 29 44 14
10 19 21 19 17 13 8 4 1 2 5 4 349 340 333 326 318 305 299 290 288 289 287 292 295 295 286 269 247 245 236 245 278 24 40 35 44 61 81 95 90 94 99
28 28 23 19 15 12 13 12 6 359 353 356 349 340 324 312 301 291 281 277 254 245 231 241 240 233 227 213 218 236 226 240 9 55 67 77 95 90 117 104 101 126 103
35 31 31 32 37 36 38 44 49 49 9 341 344 332 289 289 290 271 214 183 188 209 215 209 201 205 199 194 212 228 269 45 78 117 101 120 120 113 106 98 104 109 114
44 45 48 55 63 68 74 84 102 116 135 149 174 199 192 220 211 180 179 179 174 185 193 185 179 178 176 161 137 90 213 66 139 131 116 113 114 114 110 106 109 113 128
62 66 68 77 83 86 87 92 100 113 127 138 140 144 148 155 162 157 156 158 157 157 157 160 156 152 146 123 116 112 116 129 141 145 132 138 118 120 115 102 99 105 108
84 88 90 90 95 93 92 94 99 105 112 117 121 123 126 129 134 135 138 139 142 144 147 142 142 136 133 133 127 128 130 133 134 132 128 121 112 109 119 116 107 108 106
102 102 100 99 101 100 100 99 101 105 108 111 114 117 118 120 124 128 131 131 132 133 134 137 137 132 121 125 132 137 134 132 127 121 119 120 122 112 109 111 114 107 102
117 112 109 106 105 105 102 105 105 107 112 114 117 119 121 122 124 125 125 127 130 130 136 138 131 123 121 127 138 138 134 126 121 117 114 112 111 108 107 108 107 106 105
119 116 113 112 109 109 109 108 108 110 113 116 118 120 120 121 121 120 116 116 123 122 121 124 124 121 117 115 120 125 120 117 119 117 114 110 109 110 109 103 103 102 102
129 127 126 122 119 115 114 110 113 112 116 117 116 118 120 121 119 117 115 114 114 118 119 121 122 119 116 118 119 122 123 125 125 123 120 119 119 115 111 104 103 98 90
139 131 130 130 127 124 121 117 112 113 118 116 115 116 117 117 118 118 117 115 119 123 122 121 120 119 118 119 119 126 130 135 129 126 118 113 109 105 101 99 97 99 95
146 132 126 125 128 127 125 120 118 117 118 119 117 117 117 118 119 118 118 123 130 128 122 120 119 122 121 121 120 117 114 116 113 109 102 99 98 95 97 99 94 89 85
144 133 125 116 116 125 123 121 118 118 120 120 118 116 114 117 118 114 112 114 117 120 118 119 115 116 114 111 106 106 105 105 109 107 102 104 90 101 92 85 84 84 78
141 138 131 125 124 127 128 126 125 122 120 118 119 118 118 120 105 107 117 118 114 110 110 110 115 109 112 110 107 104 101 98 96 91 93 91 101 96 83 76 71 72 70
143 142 140 137 133 130 134 132 130 130 126 123 119 118 116 115 107 101 106 113 115 111 109 110 112 112 110 108 103 102 102 95 91 90 86 85 81 78 76 67 63 62 62
149 150 150 148 144 141 140 135 135 135 133 128 126 122 121 117 111 109 111 114 113 111 110 109 109 113 110 105 100 97 98 95 90 87 83 76 73 69 68 64 55 49 48
160 163 169 165 153 149 147 145 143 137 131 129 126 121 117 115 116 114 111 108 107 105 104 103 102 101 100 100 98 95 92 89 84 80 74 66 61 51 57 53 49 44 40
169 173 173 172 177 167 157 148 143 138 133 128 127 126 122 118 115 113 109 106 105 104 103 101 99 97 94 92 91 90 87 84 80 75 69 62 53 49 44 39 38 39 35
185 193 196 195 174 161 154 149 144 141 137 134 132 129 127 124 119 115 109 103 101 100 99 96 93 91 91 90 87 82 78 76 73 66 59 53 47 44 41 37 37 34 33
194 199 192 175 169 165 162 157 151 149 147 143 139 135 134 130 124 114 106 102 100 101 97 93 89 87 86 85 85 82 77 76 71 60 53 49 44 40 35 33 35 33 31
197 199 204 188 179 175 175 171 170 172 166 160 155 148 145 141 127 115 104 98 92 91 92 91 88 85 83 82 81 81 76 70 63 56 50 49 44 38 35 34 35 33 28
200 209 216 205 190 190 183 181 186 204 253 286 294 284 292 307 154 109 93 84 75 76 77 78 80 75 71 69 68 69 63 59 54 53 52 47 43 39 37 35 33 33 29